View from above orbital plane
|
View from above satellite
|
Ground track
|
The orbit data is extracted from the following two-line orbital elements,
1 29092U 06015A 21016.11045255 .00000063 00000-0 14279-4 0 9993
2 29092 97.9235 44.8989 0001371 92.2927 267.8444 14.83121638796356
Epoch (UTC): | 16 January 2021 02:39:03 |
Eccentricity: | 0.0001371 |
inclination: | 97.9235° |
perigee height: | 618 km |
apogee height: | 620 km |
right ascension of ascending node: | 44.8989° |
argument of perigee: | 92.2927° |
revolutions per day: | 14.83121638 |
mean anomaly at epoch: | 267.8444° |
orbit number at epoch: | 79635 |
The dashed part of the orbit path shows where the satellite is in the earth's shadow,
|
|